Wind_Speed
1 3 5 5 7 9 10 8 9 12 11 10 5 5 9 9 9 13 8 8 12 7 5 9 7 9 11 10 9 8 8 8 11 13 10 10 11 10 10 9 9 8 7 11 14 15 16 17 16 16 14 13 13 12 13 13 11 9 10 10 10 11 9 9 8 9 8 8 9 12 11 11 11 11 10 11 13 13 13 14 15 16 15 13 14 15
2 3 7 8 10 12 11 10 11 10 8 7 1 4 7 8 8 10 10 11 11 6 5 6 7 9 10 9 9 8 8 8 12 14 11 12 12 10 11 11 9 8 7 9 11 13 15 16 16 16 15 14 14 13 13 14 13 12 12 11 11 11 10 10 10 11 12 11 12 13 13 12 12 12 12 13 14 13 12 12 14 16 14 10 12 15
4 5 11 12 11 11 10 11 11 8 7 6 1 6 5 5 2 4 9 11 9 4 4 6 7 7 5 6 7 8 8 7 11 15 14 15 14 11 12 11 10 9 8 8 9 12 14 13 14 14 14 15 16 15 14 15 15 14 14 13 12 11 10 9 10 11 12 13 13 13 14 13 12 12 12 14 15 13 12 13 15 18 16 8 10 15
3 7 12 11 9 8 10 12 9 5 5 5 2 3 3 7 6 4 8 8 7 2 3 6 3 0 2 3 3 5 7 6 9 14 14 15 15 14 14 12 12 12 10 9 8 9 11 11 10 11 14 16 18 18 17 15 14 13 13 14 13 11 10 10 11 12 14 15 15 14 14 13 13 13 12 13 15 14 14 14 15 18 17 12 13 16
7 10 11 10 9 8 9 12 9 5 5 4 1 2 3 8 9 7 7 8 4 1 4 7 3 3 1 5 3 4 4 7 8 11 11 11 13 13 12 10 11 11 10 9 7 8 10 10 8 8 12 17 18 18 16 15 14 14 15 15 15 15 14 13 13 13 14 15 14 14 14 14 14 15 14 15 16 16 15 15 16 17 17 15 15 16
8 11 11 11 11 9 8 9 8 5 5 5 4 6 6 8 10 8 10 11 5 3 4 6 3 3 3 6 7 4 5 7 7 11 11 11 12 11 10 8 7 8 8 7 7 8 11 13 11 8 10 16 17 14 13 14 17 18 17 16 15 15 15 15 14 13 13 14 14 14 15 15 15 16 16 17 17 17 16 15 16 17 17 17 17 16
6 9 9 11 10 8 7 7 7 5 2 4 5 4 4 4 6 10 12 10 7 5 7 6 4 2 4 4 7 6 8 7 7 11 12 12 12 10 8 7 7 7 7 7 7 8 11 14 14 11 10 15 15 13 13 16 18 18 17 16 15 16 16 15 14 13 13 14 15 15 16 16 16 16 16 16 16 16 16 15 16 17 18 17 17 17
6 8 9 10 8 6 6 6 6 4 2 5 5 3 6 4 2 11 14 10 5 2 4 5 4 2 3 4 7 9 10 8 9 12 12 11 11 10 8 7 8 9 8 8 7 6 10 13 14 15 14 14 16 18 20 20 19 18 18 17 17 16 15 14 14 14 14 14 14 15 16 16 16 16 16 15 15 15 15 15 16 17 17 17 17 17
5 7 9 10 8 6 6 8 6 1 2 7 5 3 4 2 0 4 8 6 3 5 4 6 2 3 3 4 5 10 9 8 9 13 12 13 13 10 8 7 7 8 7 7 5 6 10 11 13 17 16 15 19 23 23 21 20 19 19 18 17 16 15 14 13 14 14 14 14 14 15 16 15 15 15 14 15 14 15 15 16 17 17 16 17 17
5 6 8 8 7 6 6 8 5 2 5 7 3 1 3 4 3 3 5 3 1 4 4 10 5 3 3 3 5 7 6 8 9 10 11 12 11 9 7 7 7 6 5 4 5 6 10 11 12 15 16 17 21 23 23 22 21 20 19 18 18 16 15 14 14 14 15 15 15 16 16 16 15 15 14 14 14 14 14 16 17 17 18 17 17 17
7 6 5 5 6 6 5 5 5 5 6 3 4 4 5 5 4 4 3 4 4 2 6 10 9 5 1 2 4 5 6 11 11 8 10 10 9 9 8 8 8 6 4 4 6 7 10 12 12 14 16 19 22 23 23 22 20 20 19 18 18 17 15 16 16 16 17 16 17 17 17 17 16 16 15 14 14 14 15 16 17 17 18 18 18 17
6 6 4 4 6 6 5 5 4 4 1 4 5 4 5 5 4 5 5 4 3 5 6 5 8 7 2 3 6 7 7 15 17 12 13 12 11 10 9 9 7 5 5 5 6 7 9 11 11 13 17 20 22 22 22 21 20 19 19 18 19 17 16 17 17 17 17 16 17 17 17 17 16 16 17 15 13 13 15 15 16 16 17 17 17 17
5 6 5 6 7 5 3 4 5 6 4 5 4 4 4 4 3 3 4 2 2 6 4 7 9 5 1 3 3 4 5 14 17 15 17 16 14 13 11 9 6 5 6 6 7 7 7 9 11 14 18 20 21 21 21 21 19 19 18 18 19 18 17 17 16 16 16 15 15 15 14 15 14 15 17 16 13 13 15 15 15 16 16 16 17 18
4 6 5 5 6 3 6 2 3 5 3 1 1 3 3 2 2 1 3 2 3 5 4 4 6 2 3 4 5 3 0 8 12 13 17 18 16 14 11 9 7 8 9 7 8 8 8 10 12 14 18 19 20 22 21 20 18 18 17 17 18 18 16 15 15 15 15 15 14 13 13 14 15 16 17 16 14 16 17 16 17 16 16 17 18 19
3 5 5 4 4 3 4 6 7 5 3 3 4 6 4 4 3 3 3 2 4 4 4 3 3 1 2 3 6 4 5 7 11 13 13 13 12 12 10 9 8 9 9 7 7 7 8 10 12 13 17 19 21 23 22 20 18 18 17 17 18 17 14 13 14 13 14 14 14 14 14 16 17 19 19 19 18 18 18 17 18 18 17 17 18 19
4 5 7 7 6 4 6 8 6 5 3 4 3 6 2 5 5 3 4 5 3 0 3 3 3 1 2 4 6 4 9 11 13 14 12 11 10 10 11 10 9 9 8 7 6 5 7 10 11 13 17 19 21 22 21 20 18 17 17 17 17 16 13 11 12 11 11 13 15 15 14 15 17 19 20 20 20 20 20 19 18 18 17 16 16 17
4 5 7 7 8 7 9 8 4 5 3 2 1 4 4 5 7 2 3 3 1 2 1 1 4 2 2 4 6 5 11 11 10 12 11 11 11 10 10 9 9 7 6 5 5 5 7 9 11 14 17 18 20 20 20 18 16 15 16 17 16 15 12 11 10 9 10 13 15 15 14 14 16 18 19 19 19 19 19 19 18 18 17 16 16 16
5 4 6 6 8 8 8 7 5 7 7 4 2 6 2 3 4 3 1 2 2 1 2 1 7 5 2 3 2 1 8 8 7 9 9 9 10 8 8 7 5 4 5 5 6 6 7 9 11 14 16 18 19 19 19 16 13 12 14 16 16 13 12 11 10 9 11 14 16 16 15 14 15 16 18 18 18 17 17 18 18 17 17 17 16 16
5 3 7 6 6 6 5 4 5 6 8 6 3 4 3 2 1 0 1 1 1 1 1 2 3 3 1 3 3 5 6 9 6 6 8 8 8 6 6 6 4 5 5 5 6 5 6 9 12 15 16 18 19 18 17 14 12 13 13 14 14 13 11 10 9 10 12 15 17 17 16 15 14 15 16 18 17 17 17 18 17 16 16 15 15 16
5 3 6 4 5 3 3 1 3 6 7 4 2 1 2 3 4 2 2 3 3 2 3 2 3 1 1 2 7 10 9 11 9 7 8 7 6 5 6 7 5 5 4 4 5 4 5 10 15 16 16 18 18 16 15 13 11 13 13 12 13 12 11 10 10 12 14 16 17 17 17 16 15 14 15 17 17 18 17 16 15 15 14 14 16 16
3 3 5 4 1 1 3 2 5 6 6 4 2 3 2 1 2 3 2 3 4 3 4 4 0 2 4 4 7 12 11 11 12 10 7 6 7 7 7 7 6 6 5 5 5 5 7 13 17 17 18 18 17 15 14 13 10 10 13 13 13 12 12 13 14 15 16 16 16 17 17 16 15 15 15 15 17 17 17 15 15 14 13 13 17 16
2 3 4 4 4 2 5 6 5 6 7 7 6 6 5 4 2 2 3 3 3 4 4 5 3 4 4 3 5 12 11 10 11 9 7 8 9 8 6 6 6 6 6 5 5 7 10 14 17 19 18 17 15 14 11 8 6 8 12 14 12 11 12 15 17 17 16 16 16 16 16 15 14 14 14 14 15 16 16 15 15 14 13 15 18 15
4 3 3 4 4 4 8 8 6 6 6 7 6 6 5 4 3 4 4 3 4 4 2 5 3 2 4 4 3 10 10 9 8 7 9 9 8 8 6 5 5 5 5 6 7 10 13 15 18 19 17 14 13 11 9 8 10 12 15 16 14 13 15 16 18 17 16 16 15 15 14 14 14 13 13 14 14 15 15 15 15 14 14 17 18 15
2 2 1 4 4 4 7 6 5 3 1 1 3 3 4 2 3 5 5 3 3 3 2 5 2 2 2 4 2 6 6 6 5 5 8 9 7 7 6 6 6 6 7 9 9 10 13 15 17 17 14 13 11 11 14 17 19 20 20 18 16 16 16 17 17 16 16 15 15 14 14 14 14 14 13 13 14 14 15 15 15 15 16 19 18 15
1 1 1 2 5 7 7 6 6 5 4 3 2 3 4 4 7 6 3 4 4 2 3 6 1 3 1 1 2 4 6 6 6 4 6 8 7 7 7 7 7 7 8 10 10 10 11 12 14 14 13 12 11 14 20 22 21 20 19 17 16 17 17 17 16 15 15 15 14 14 14 14 14 13 12 12 12 13 13 14 14 14 15 18 19 16
2 2 3 2 3 3 2 2 3 3 2 3 4 7 8 7 9 6 3 5 4 1 3 4 3 2 3 3 3 4 6 6 6 5 5 6 7 8 8 8 7 7 8 10 10 9 9 9 12 14 12 10 12 17 22 22 19 18 18 16 16 17 17 17 16 15 15 14 14 14 13 12 13 12 10 11 12 12 12 12 12 13 12 14 17 17
4 2 4 6 6 5 5 6 5 1 3 4 5 8 9 10 10 8 6 5 3 3 3 1 5 9 7 7 6 6 6 6 7 7 7 7 8 9 9 8 7 7 8 9 9 8 9 8 10 13 13 12 15 19 20 20 19 18 18 18 17 16 16 15 14 15 15 14 14 14 12 11 11 10 9 10 12 11 12 12 12 12 12 11 13 15
5 1 3 6 5 6 6 7 6 4 6 7 8 8 8 11 12 10 8 7 6 5 2 2 6 12 10 10 10 9 8 7 7 8 9 9 9 9 9 9 9 8 8 9 8 8 8 7 8 11 13 15 19 20 19 19 18 17 17 17 16 14 14 13 13 13 12 12 13 14 12 10 10 10 10 10 11 10 10 11 11 11 12 12 13 14
6 2 4 5 3 6 3 1 5 8 8 8 9 8 6 10 13 12 9 9 7 5 4 6 7 8 9 10 11 10 10 10 9 9 9 9 10 10 11 11 11 10 9 9 8 8 8 7 7 9 12 16 20 20 19 18 17 17 17 15 14 13 12 12 12 12 10 10 12 13 12 9 9 10 12 12 11 9 9 9 10 10 11 11 11 14
4 3 3 4 1 3 7 12 13 11 10 11 11 8 7 9 12 12 8 7 7 8 11 12 9 4 4 8 8 7 8 8 8 8 8 10 11 11 12 11 11 10 9 8 8 7 8 9 9 10 13 17 19 19 19 19 18 17 16 15 14 13 12 11 11 10 9 9 11 12 10 8 8 9 11 12 10 9 9 9 9 9 9 7 8 11
0 3 2 4 3 4 10 16 14 12 13 13 9 8 10 12 11 12 10 8 9 8 9 13 11 3 0 4 7 8 8 9 9 10 9 9 11 12 12 11 10 9 8 7 8 7 7 9 10 11 15 18 19 20 20 19 17 15 15 15 15 14 12 11 10 9 9 9 9 10 9 7 8 9 9 10 9 8 8 8 7 7 8 6 6 8
1 2 1 4 3 1 7 17 15 13 15 11 6 5 8 9 8 7 7 6 7 10 10 9 8 4 2 6 9 9 10 11 11 11 9 9 10 11 11 11 10 9 8 7 8 8 8 8 10 13 16 18 19 21 20 18 17 16 16 15 15 13 11 10 9 9 9 8 7 7 7 7 8 8 8 8 8 8 7 7 7 8 9 8 6 6
2 3 1 3 2 4 4 13 12 9 10 6 2 1 2 6 7 5 4 3 6 10 10 5 4 5 7 9 10 10 10 11 11 10 10 10 10 9 10 10 9 8 8 8 8 9 9 10 12 16 18 19 20 21 20 19 19 17 15 14 12 11 10 10 10 11 10 8 6 5 6 8 9 8 7 6 6 6 6 6 7 7 9 9 7 6
1 3 3 3 3 1 1 6 7 7 4 1 4 2 2 5 8 8 6 5 6 6 5 5 6 8 9 9 11 12 11 10 10 9 9 9 9 9 8 8 8 8 8 9 8 9 11 13 16 19 20 20 20 20 19 18 16 13 11 11 11 10 10 11 12 12 11 9 6 4 5 7 9 7 6 5 5 5 5 5 5 6 6 7 7 6
3 2 2 2 4 3 2 5 7 4 2 4 1 4 6 8 12 13 9 6 7 8 10 11 10 9 8 7 8 10 10 9 8 7 7 8 9 10 10 8 8 9 9 9 8 10 13 16 18 19 20 21 21 20 18 15 12 10 9 10 11 11 12 12 12 12 10 9 7 6 5 6 7 6 5 4 4 3 3 3 4 4 5 5 5 5
5 4 2 2 3 2 2 4 5 3 3 2 5 6 7 8 10 12 8 5 3 7 11 11 9 9 10 9 8 8 9 9 7 5 5 7 7 9 9 9 8 9 9 10 11 13 17 19 21 21 21 21 20 18 15 12 9 8 9 11 12 11 11 11 11 10 9 9 9 9 8 6 6 5 4 3 3 3 2 2 3 4 4 3 3 4
5 5 3 3 3 3 4 4 4 3 2 3 3 3 4 4 4 6 5 2 3 4 10 12 10 10 11 10 9 10 11 10 7 4 4 5 7 8 9 9 10 11 12 14 16 19 21 22 22 22 21 20 18 15 12 10 8 8 10 12 12 11 9 9 9 9 8 8 9 9 10 9 8 6 5 4 5 4 3 3 4 5 5 3 3 4
4 5 5 4 2 2 5 5 4 4 1 4 5 5 3 6 6 7 6 1 3 3 9 13 13 11 11 11 10 10 10 8 5 1 2 5 8 10 10 12 14 15 16 19 21 21 22 22 22 21 19 19 17 13 10 9 9 10 12 12 11 11 10 9 9 9 8 7 7 8 8 8 7 6 5 5 5 5 5 4 4 4 4 4 4 4
10 3 4 6 3 2 5 5 3 3 2 5 4 1 4 7 7 7 5 2 3 5 8 12 13 11 11 11 10 8 7 5 3 4 3 5 9 11 11 12 15 18 20 22 24 22 21 21 21 18 16 17 15 11 11 13 13 14 15 13 12 11 10 9 8 7 6 7 7 7 7 6 5 4 3 3 2 2 3 4 4 4 3 3 4 5
9 6 4 7 4 3 5 4 2 2 2 3 3 0 4 5 6 8 3 5 5 7 7 10 13 11 10 10 8 6 5 4 5 6 6 8 10 13 14 15 17 20 21 21 23 23 22 21 19 16 15 15 14 12 13 15 16 16 15 12 12 10 8 6 6 5 5 6 5 5 5 6 4 3 2 2 1 1 1 1 2 3 3 3 4 5
5 4 3 5 4 4 6 4 1 1 2 3 4 2 3 4 6 3 3 6 6 9 8 9 12 10 9 8 5 2 2 4 8 9 10 11 11 12 16 20 21 22 22 22 23 23 22 20 18 16 15 14 14 14 15 15 14 14 13 11 10 8 4 3 5 5 4 3 3 3 3 4 3 2 2 2 1 1 2 1 1 2 3 4 5 5
2 3 3 3 3 2 4 4 2 1 4 4 3 2 3 4 1 4 4 4 8 10 8 8 10 8 7 6 5 4 5 9 13 12 11 12 12 13 16 20 21 21 22 23 24 23 22 19 17 16 14 13 15 16 15 14 13 12 11 9 8 6 4 4 5 4 2 2 2 2 2 3 3 1 0 1 1 1 3 2 2 3 4 4 5 5
1 1 2 0 2 1 2 3 3 1 5 4 2 3 3 2 5 4 3 6 7 8 8 7 7 8 9 8 8 10 11 12 13 12 12 12 12 14 18 20 20 20 22 22 22 22 21 18 15 15 14 14 16 15 13 12 12 10 8 7 7 6 5 5 5 4 3 3 3 1 1 3 2 1 1 1 1 2 3 3 3 4 5 4 5 6
1 2 2 2 2 1 2 2 3 4 4 1 2 2 1 3 4 5 6 6 5 6 7 6 7 9 11 12 11 12 12 12 12 12 12 12 11 14 18 20 20 21 21 21 20 19 19 19 17 16 15 15 15 14 11 10 10 9 6 5 5 5 5 6 7 5 3 3 3 2 2 3 3 2 2 2 2 3 4 5 5 5 5 5 5 5
3 4 3 2 2 2 3 3 3 3 0 3 4 4 4 5 5 7 8 6 5 6 6 7 9 10 12 14 13 12 11 11 12 11 11 11 11 14 17 19 20 21 21 21 21 21 21 21 20 18 17 15 14 12 11 10 9 7 6 5 5 5 6 7 8 7 5 5 5 4 4 4 4 4 3 3 3 4 6 7 8 8 6 5 5 5
2 1 0 2 4 4 4 3 3 4 4 5 5 5 5 6 6 7 8 7 6 7 8 9 11 12 13 14 13 11 11 12 12 11 11 11 12 15 18 20 21 23 23 23 23 23 23 22 20 19 17 14 11 11 10 9 7 4 5 6 7 6 5 7 8 8 8 8 6 5 6 5 4 4 3 3 4 5 6 6 7 8 8 6 6 7
3 3 3 3 4 4 3 2 4 6 5 6 7 7 7 6 5 6 8 8 8 9 10 11 13 13 13 13 13 13 13 13 13 11 10 10 11 14 19 20 21 23 24 24 25 25 23 21 19 19 17 14 10 9 9 8 5 3 4 7 7 5 4 4 4 5 7 11 10 8 7 7 7 6 5 4 5 5 5 5 5 6 8 8 8 8
1 4 4 3 4 3 3 3 6 7 5 5 7 7 6 7 7 7 8 9 10 12 12 12 14 13 11 12 14 15 14 13 13 12 10 10 11 14 17 19 20 22 24 25 26 25 22 21 20 19 17 14 12 10 8 7 5 6 8 8 6 5 4 3 2 4 3 6 10 11 9 8 8 9 8 6 5 5 6 6 6 6 8 9 10 11
1 3 2 3 5 5 4 5 8 8 6 6 7 6 6 8 9 9 9 10 11 12 12 12 13 13 13 14 14 15 14 12 13 13 12 10 10 13 16 18 19 21 23 25 25 23 21 20 20 19 16 15 14 11 9 7 7 8 8 6 5 6 5 2 1 4 7 3 4 6 6 5 5 5 6 6 6 6 7 8 8 7 8 9 10 12
3 3 3 5 6 4 4 5 7 8 4 2 5 7 7 8 11 11 9 9 10 11 11 11 11 13 15 17 16 15 13 12 13 15 13 11 13 16 19 19 20 20 23 25 24 22 22 21 19 18 16 14 14 11 9 9 9 10 9 6 4 4 4 3 1 3 6 4 2 2 1 2 2 2 3 4 5 6 7 8 8 8 9 10 11 12
3 5 5 6 5 5 6 5 5 7 5 4 5 8 7 8 11 11 9 9 10 10 11 12 11 11 12 14 18 19 15 13 17 18 14 13 18 22 22 22 22 20 21 24 24 23 22 20 18 17 15 14 13 11 9 9 10 10 10 8 4 3 3 2 2 1 4 3 1 1 2 3 3 4 5 6 6 7 8 9 9 9 9 11 12 13
Wind_Direction
192 286 287 254 257 259 255 238 231 250 253 244 227 160 168 174 199 204 183 173 170 157 196 189 175 177 174 174 173 165 145 130 141 151 150 137 134 137 139 150 158 158 163 156 156 158 155 150 143 138 138 140 132 119 120 119 114 113 109 102 95 94 96 91 84 80 85 97 105 103 96 89 86 84 81 70 58 50 45 43 39 34 29 29 35 37
13 281 264 250 250 254 260 264 261 267 274 273 297 110 160 181 205 194 175 184 173 152 201 179 164 188 183 172 171 157 139 135 145 148 145 134 132 139 145 155 159 156 157 150 152 154 148 146 143 139 135 133 128 120 122 120 114 110 104 98 94 95 97 92 85 83 86 95 101 94 88 89 85 76 72 66 55 49 47 43 39 34 28 24 33 36
318 273 262 259 259 270 278 277 279 286 288 286 66 98 145 175 157 162 184 187 163 150 207 174 175 200 186 167 165 155 147 146 150 146 142 137 135 146 155 160 160 153 155 157 157 150 142 142 141 134 127 122 118 116 120 121 114 107 101 98 99 97 96 96 88 83 85 92 98 93 86 85 79 71 69 63 54 55 58 51 45 40 38 46 41 33
259 261 264 267 270 285 288 282 291 311 306 313 19 60 157 164 137 160 206 182 144 151 178 151 163 279 77 108 134 169 152 125 141 141 137 140 143 154 163 161 156 154 160 164 157 139 129 128 122 122 124 120 116 115 117 118 112 105 100 98 99 96 95 97 92 91 96 99 98 93 89 87 81 73 70 65 57 57 55 48 46 43 44 58 55 44
227 251 264 281 287 287 293 295 310 332 320 325 260 216 177 175 183 184 166 141 118 8 124 116 57 349 135 136 151 193 129 99 128 130 120 134 142 153 162 153 148 155 159 155 148 136 122 111 99 112 129 125 120 118 114 109 106 106 103 98 97 96 94 96 97 100 103 102 98 94 90 86 79 69 62 59 54 50 48 45 43 44 49 60 59 53
234 252 261 273 280 284 293 293 294 287 296 314 243 207 168 177 196 170 122 124 150 253 192 137 92 301 248 171 173 176 114 100 123 126 120 134 146 154 155 140 137 147 144 143 155 147 123 112 110 118 133 129 124 120 114 109 109 109 105 101 99 96 93 93 93 96 97 92 87 84 76 70 69 65 59 55 49 45 47 47 45 49 55 57 55 54
231 248 260 267 272 282 285 276 265 243 251 303 255 191 123 131 160 146 136 146 175 216 207 165 128 243 266 202 181 156 132 121 119 133 138 145 153 157 149 137 142 147 142 150 159 143 124 122 125 131 142 135 126 122 120 117 114 112 109 105 101 96 92 91 90 91 91 85 79 76 68 64 68 66 61 56 50 47 48 49 49 54 56 55 54 55
218 229 254 265 272 283 277 267 255 217 189 268 252 95 57 28 115 154 159 176 195 145 167 177 124 120 246 228 178 149 137 129 131 145 150 151 154 154 148 147 156 161 162 162 159 139 126 129 134 141 145 137 127 124 123 120 116 113 110 105 102 98 93 90 90 87 83 79 75 72 65 65 69 65 61 60 57 54 50 48 51 56 58 58 57 52
224 218 239 250 260 265 261 262 258 200 229 255 236 96 65 53 145 163 150 174 200 95 139 212 158 106 258 265 150 140 134 133 152 159 156 154 156 151 147 159 171 176 174 159 144 128 123 128 141 144 141 136 129 126 123 120 117 114 110 107 104 100 94 87 84 80 76 75 73 71 66 69 72 66 62 63 59 55 51 50 54 58 60 58 53 50
241 223 223 235 253 243 243 258 258 240 249 263 279 358 49 69 44 42 101 124 48 68 181 214 181 117 271 288 120 134 147 156 172 171 158 152 149 144 149 170 188 188 172 125 102 109 119 131 146 143 137 133 128 125 124 121 119 116 113 110 103 95 89 84 80 77 74 73 71 68 68 72 72 64 61 62 58 53 52 52 55 60 59 54 54 56
253 254 229 220 241 242 258 256 238 237 239 279 359 7 14 22 33 38 69 81 55 339 243 212 178 140 256 267 155 168 176 163 169 170 153 142 135 142 161 181 190 182 144 102 101 113 124 138 148 141 135 131 127 126 125 123 121 118 114 108 99 90 85 82 79 78 75 72 68 68 70 71 65 58 55 57 57 55 52 52 59 64 60 56 60 60
276 277 261 240 235 241 289 286 268 285 283 74 59 49 13 343 7 24 358 39 91 257 267 184 145 118 122 245 207 205 178 156 165 168 153 146 145 155 176 186 181 156 124 119 124 131 138 147 150 142 135 131 128 126 124 123 122 116 112 106 97 89 84 83 81 79 76 71 67 67 68 64 60 54 49 48 54 56 56 59 62 62 56 58 61 59
294 270 262 272 257 220 228 288 308 329 8 59 61 55 30 341 4 8 310 340 196 252 263 143 122 93 197 260 246 212 173 163 170 162 149 151 155 165 178 177 159 138 142 146 144 151 156 155 155 146 138 133 129 125 124 123 120 113 110 104 97 92 88 86 82 79 77 72 67 63 60 58 58 53 46 44 50 60 66 66 61 57 57 59 58 56
293 289 287 294 289 222 163 189 292 299 313 336 160 109 94 91 64 296 273 299 259 272 286 150 115 61 267 323 350 347 146 165 157 141 145 153 157 163 167 157 146 150 159 162 160 162 162 158 156 146 139 135 130 127 127 124 119 114 108 102 98 95 93 89 83 80 79 74 65 59 58 59 56 50 48 52 60 67 69 66 63 65 67 63 58 57
225 276 270 237 261 246 187 202 212 213 227 232 177 132 137 153 151 229 225 213 250 268 315 352 63 130 228 344 342 350 40 91 112 119 138 146 147 151 146 142 148 160 170 172 166 159 150 149 146 140 139 137 131 130 128 124 119 113 106 102 99 96 93 87 82 82 79 71 62 62 65 61 56 55 58 65 69 67 64 65 67 68 67 64 60 58
191 244 250 234 236 230 229 226 188 154 224 246 156 116 157 186 168 225 212 193 218 149 7 2 49 85 135 38 351 23 71 79 100 117 129 134 139 140 138 147 160 169 176 167 154 143 134 135 134 135 135 131 129 129 125 123 121 114 109 105 101 97 94 86 83 84 79 71 68 70 70 62 59 61 62 67 69 64 63 65 66 66 67 65 58 55
182 246 259 250 257 241 232 238 182 156 211 273 199 198 218 171 143 165 255 250 209 114 326 15 107 102 92 57 353 29 87 92 111 123 130 139 143 140 144 162 170 167 162 144 135 132 129 130 128 128 126 123 124 123 120 121 119 115 113 110 104 101 99 95 94 95 84 78 77 77 75 67 64 65 64 68 69 66 66 65 65 69 68 62 54 51
174 253 269 241 258 263 249 253 231 190 172 134 214 220 208 66 93 116 220 331 11 141 276 92 131 156 163 86 329 350 101 116 134 128 132 142 143 144 151 159 153 127 121 117 114 117 124 125 120 121 122 122 122 120 120 120 115 115 116 112 109 107 106 105 107 106 91 84 83 81 81 76 69 67 68 70 68 66 67 66 68 70 64 60 54 50
169 242 284 238 225 265 276 258 259 239 199 180 205 187 135 80 31 260 165 121 330 202 80 34 95 121 81 103 184 207 152 145 147 131 145 151 142 141 141 132 106 95 108 109 105 113 118 111 112 119 120 118 119 119 120 118 116 120 123 120 116 114 113 110 111 112 97 88 89 86 84 81 74 69 69 70 68 66 65 66 68 67 63 58 47 46
167 193 280 245 180 237 310 159 223 255 237 230 321 4 137 157 168 200 192 156 194 209 131 66 20 70 198 199 194 201 180 154 153 162 165 147 120 125 134 129 120 118 122 115 119 130 117 112 117 121 119 115 116 119 121 127 131 133 135 135 127 118 113 111 115 117 105 97 96 91 84 81 76 71 68 69 71 69 66 64 64 63 62 52 40 49
145 188 257 286 9 340 303 239 204 217 217 212 243 254 249 220 183 196 206 147 143 157 134 121 81 242 248 254 192 184 180 166 166 170 158 124 118 130 132 132 138 142 137 132 139 140 124 121 120 118 118 118 122 126 129 134 141 146 144 136 126 117 110 110 116 117 110 102 97 90 85 80 75 71 68 66 68 68 65 61 58 58 58 46 40 54
140 188 220 291 330 297 253 243 227 215 196 182 197 218 211 193 160 155 265 300 79 104 136 137 159 241 272 299 170 167 173 177 172 160 137 125 130 131 127 135 146 146 139 140 143 133 126 123 117 116 118 120 128 135 136 141 161 168 153 136 125 115 108 110 115 115 110 104 96 89 85 79 74 69 65 63 63 63 62 60 57 56 53 44 44 61
149 149 198 255 260 245 251 258 265 251 208 181 199 207 188 172 137 142 221 271 52 56 69 100 100 252 288 317 174 164 170 172 161 144 136 132 128 127 130 138 135 126 124 127 122 119 123 122 117 118 119 121 129 127 119 128 139 141 138 131 118 106 106 113 116 113 107 101 94 89 84 78 73 67 65 65 62 59 59 58 54 51 50 50 56 72
139 120 213 270 294 301 287 290 307 307 107 163 230 184 149 171 136 134 174 169 79 29 51 81 60 251 293 325 241 164 153 139 113 114 133 127 122 130 134 131 122 113 114 115 110 112 118 118 115 115 116 119 117 100 95 105 110 111 116 116 105 97 104 113 113 107 102 98 95 90 82 75 69 67 69 70 65 61 57 52 50 51 53 56 64 77
211 173 89 334 328 336 336 345 345 341 28 31 335 39 69 112 108 95 87 93 71 19 100 112 193 244 191 312 240 134 109 93 74 79 115 121 132 140 134 128 123 119 119 116 113 115 117 116 113 110 112 116 108 96 100 105 105 107 109 106 99 99 105 109 107 105 102 100 97 89 80 73 68 67 72 74 72 69 62 54 53 57 57 56 62 72
145 157 104 118 261 284 303 314 303 298 18 32 30 48 54 78 97 100 76 72 79 66 88 119 166 162 130 175 193 133 114 109 99 96 103 123 144 142 131 128 127 125 122 118 120 124 122 117 112 110 114 120 113 108 110 111 110 110 105 99 100 103 104 105 107 109 109 107 102 94 85 77 72 72 74 75 80 82 77 71 66 65 61 54 57 66
103 146 138 152 191 209 203 221 245 225 98 88 82 84 86 88 93 100 96 91 135 122 39 337 150 137 154 184 182 160 146 138 131 127 130 145 150 137 126 128 133 129 120 119 126 125 121 117 111 113 121 123 117 114 115 114 113 109 103 102 104 103 102 106 109 110 112 113 110 105 98 90 84 81 79 76 80 90 88 77 65 58 59 56 52 58
95 184 189 160 203 234 220 243 295 19 99 115 97 90 99 103 98 96 108 134 141 105 27 277 145 141 169 188 178 168 160 153 151 152 152 152 145 133 129 135 139 134 125 125 124 119 121 118 109 117 125 122 119 119 118 117 115 109 107 109 108 104 105 111 113 110 108 112 115 114 111 106 96 84 82 80 78 82 84 73 61 56 58 61 55 55
109 204 204 154 225 271 277 355 33 61 91 95 85 84 90 101 105 104 119 149 149 127 158 174 147 144 169 181 180 172 162 161 160 158 154 147 141 138 141 147 147 142 136 132 128 127 127 120 120 133 131 124 123 122 119 120 117 109 107 109 108 105 107 112 113 108 104 110 122 126 123 114 100 86 85 89 82 79 84 77 72 72 67 66 68 66
119 216 200 131 130 341 60 81 84 83 80 73 72 78 78 83 95 99 111 135 126 124 141 140 127 122 161 169 170 157 150 152 146 148 153 150 148 148 149 152 151 147 144 141 142 143 133 131 144 147 133 126 125 122 117 117 115 108 107 110 110 110 108 107 105 101 98 110 126 134 132 116 103 96 93 93 89 88 93 86 79 79 74 77 87 80
169 244 227 103 52 16 78 95 96 91 89 83 75 80 88 88 89 96 106 107 96 106 124 122 119 117 299 137 130 125 132 138 142 153 159 155 155 154 152 152 152 152 149 144 146 145 135 143 150 139 128 128 127 123 120 117 113 110 114 116 114 112 107 102 104 101 96 106 123 132 136 127 113 107 102 99 94 90 93 85 70 60 57 71 94 84
156 244 290 77 64 317 109 108 107 101 94 83 69 87 101 101 103 111 121 130 132 132 125 117 128 167 186 127 119 125 138 144 151 158 155 154 157 154 154 153 151 152 148 139 140 141 141 147 142 130 128 129 127 124 123 119 113 112 115 116 113 109 102 98 106 109 101 104 116 123 134 139 130 116 106 102 98 92 89 79 62 47 47 64 90 88
128 141 166 105 123 257 151 124 120 101 82 61 349 217 125 100 107 108 86 90 130 135 137 155 175 161 149 135 127 135 147 151 156 159 157 157 154 148 149 146 142 145 143 137 139 140 142 140 132 130 130 129 127 127 125 121 116 112 114 117 115 109 103 99 106 113 110 103 102 111 125 134 136 129 114 104 100 93 85 74 65 55 55 69 83 82
355 134 163 146 137 244 158 120 94 62 69 236 262 251 125 105 106 99 83 86 102 111 118 128 128 131 141 147 144 149 159 160 161 163 159 152 144 139 140 138 135 136 136 137 139 137 135 131 129 131 132 131 128 127 125 122 116 112 114 118 116 110 106 106 109 111 106 93 88 107 120 121 125 125 113 101 100 100 94 82 73 61 55 65 73 67
238 195 176 130 120 131 88 69 66 54 245 247 310 64 89 99 98 87 68 66 90 102 103 103 115 132 139 138 139 144 152 151 148 145 139 137 140 141 139 137 135 133 134 137 136 132 131 129 128 131 134 132 128 124 124 122 115 112 117 121 119 112 107 109 110 106 96 85 86 95 101 110 116 112 101 96 103 113 102 71 73 61 41 50 64 52
193 188 139 62 83 109 50 53 92 164 244 23 69 90 96 97 99 88 61 18 48 108 114 112 120 128 119 112 113 119 124 118 100 87 108 127 135 137 138 140 137 134 137 138 134 131 130 129 130 134 134 130 126 122 123 124 121 122 124 124 122 116 110 110 110 107 98 88 86 81 79 92 101 96 93 85 77 83 62 54 79 64 34 42 64 41
158 153 117 58 59 102 95 81 93 112 109 89 116 170 159 152 149 118 103 309 308 114 125 124 124 123 119 116 115 114 110 102 85 56 67 107 120 123 125 130 135 135 134 131 129 129 131 131 132 132 132 130 128 124 125 132 141 139 129 125 124 122 118 112 107 107 104 95 89 82 80 87 91 89 92 88 78 71 60 75 89 61 42 51 59 38
65 150 161 115 71 87 98 93 71 71 133 220 241 250 188 148 148 125 113 242 282 137 133 131 130 133 132 129 131 127 113 102 109 117 81 109 120 119 119 125 131 131 127 125 127 129 131 131 130 130 132 133 133 133 134 144 152 142 131 128 128 128 122 110 103 106 107 103 101 97 94 98 101 100 103 106 100 80 62 72 79 57 58 63 43 34
31 54 132 104 89 84 95 108 121 116 208 239 250 247 131 133 125 97 70 304 237 166 140 133 136 144 146 146 151 143 118 111 156 180 161 138 129 127 130 129 126 124 124 127 130 131 132 131 131 133 136 137 141 147 142 137 137 136 132 130 131 130 121 111 111 114 110 105 104 106 113 118 117 114 115 116 111 75 63 76 71 55 65 59 26 14
20 17 51 80 92 108 97 103 139 144 213 269 312 67 151 133 85 69 34 274 210 160 146 140 144 152 155 154 156 146 139 160 176 172 157 142 133 131 132 127 125 125 126 128 131 133 134 135 136 139 141 144 154 158 144 134 132 134 133 128 127 127 120 117 125 125 116 110 97 93 116 130 122 105 101 102 94 40 38 72 63 52 60 47 12 359
1 5 39 78 90 93 95 101 121 185 233 273 301 275 156 95 58 78 220 235 170 147 150 147 145 151 155 153 151 154 171 152 140 142 142 137 133 131 129 129 130 131 132 134 136 137 138 139 139 140 143 148 153 154 147 139 135 134 133 126 122 125 130 145 146 135 119 115 95 77 108 136 125 97 78 74 69 37 19 352 326 23 30 14 5 359
355 8 16 63 86 85 100 98 79 282 266 270 281 309 64 86 164 224 213 172 142 143 147 142 141 141 137 132 121 112 110 113 121 132 138 138 137 136 134 133 133 134 136 138 140 141 141 142 144 144 145 148 150 152 150 144 138 137 134 125 123 137 161 175 168 154 131 134 120 81 104 150 141 122 29 14 12 1 5 353 336 2 7 0 6 6
158 69 352 63 116 92 91 84 87 210 262 283 297 330 24 120 198 202 132 122 133 135 128 125 131 129 121 117 114 114 114 116 124 133 137 139 143 141 139 139 137 138 141 141 142 145 144 144 146 146 145 148 150 151 151 145 142 143 137 128 139 159 179 196 193 181 155 150 150 116 160 181 167 173 268 285 308 321 332 325 318 348 356 349 357 2
186 157 171 192 176 148 158 155 159 200 247 313 111 159 172 169 172 139 117 121 124 119 116 115 122 125 123 121 120 121 123 125 131 137 140 143 145 140 138 141 141 141 142 143 145 149 145 140 139 138 140 144 146 148 151 145 142 150 152 145 154 169 188 206 205 198 190 186 189 202 219 222 225 230 237 252 274 290 302 299 291 308 332 333 330 340
232 197 173 170 157 143 160 174 171 178 331 47 93 126 130 128 128 119 118 120 118 120 122 119 122 125 123 123 124 126 128 132 136 139 138 135 133 132 135 139 140 139 141 144 147 148 145 140 139 139 140 143 145 149 151 144 143 161 176 177 180 184 191 203 209 215 222 217 211 218 227 231 233 231 230 239 258 278 290 289 280 278 292 308 302 304
252 252 128 111 105 87 65 64 97 98 68 60 74 89 104 115 120 116 113 116 121 126 126 126 129 130 128 126 126 125 129 134 133 131 128 124 123 126 128 129 132 135 138 143 146 148 148 145 144 143 144 146 148 150 153 153 155 174 191 191 194 194 193 204 220 237 243 237 231 232 230 229 233 235 240 250 264 282 296 297 282 268 267 277 280 283
346 24 58 80 86 87 79 84 106 103 95 90 83 77 78 81 89 108 119 125 128 126 126 127 128 131 132 129 126 126 130 131 127 122 120 119 118 123 125 129 135 140 143 147 150 152 153 151 150 149 150 152 152 150 156 163 165 171 176 177 180 178 177 202 242 281 263 243 240 241 239 243 250 249 248 261 278 289 301 314 305 271 259 262 269 275
353 49 66 61 51 71 114 135 108 88 78 82 85 85 85 81 81 96 112 121 126 126 129 131 131 132 133 130 129 130 129 128 126 123 122 121 123 128 132 138 144 145 146 149 152 153 155 156 157 156 157 159 157 154 157 161 157 161 167 170 179 186 185 209 308 7 353 251 244 244 247 260 268 259 251 259 276 288 299 309 310 292 273 270 273 278
101 66 94 108 84 75 95 120 107 84 56 53 73 84 92 92 90 92 99 113 125 127 129 133 135 136 136 135 135 131 128 128 128 127 127 128 129 132 135 138 142 143 144 148 151 155 159 162 163 163 164 165 166 167 171 172 169 172 177 180 192 196 191 206 312 34 41 29 239 234 247 276 286 261 250 262 276 289 301 301 299 299 296 291 288 287
92 95 129 123 122 149 181 162 129 109 94 89 98 99 100 99 96 92 94 109 125 131 132 131 131 132 135 138 137 130 126 130 132 129 130 132 134 135 133 133 138 145 149 151 154 158 162 163 163 163 163 166 171 175 180 180 182 193 203 204 197 194 199 214 230 47 49 64 135 178 254 294 299 276 283 299 303 308 314 305 294 294 301 306 307 304
138 161 160 142 149 187 199 186 136 116 131 163 129 111 109 104 97 94 96 107 123 136 137 132 132 132 132 134 133 130 130 134 134 132 131 135 138 138 136 135 138 146 154 158 159 161 163 162 162 164 166 170 175 181 184 185 189 198 204 205 202 193 194 205 198 83 66 84 120 288 287 286 298 302 303 312 316 315 316 312 306 304 306 309 314 315
Height
756 774 783 782 780 774 769 768 767 764 765 766 769 779 786 793 794 782 778 774 769 787 796 793 797 799 796 794 792 792 793 797 800 803 806 809 811 813 813 813 812 811 809 806 807 807 807 808 808 809 810 812 813 815 816 816 816 817 817 817 817 817 818 818 819 818 818 818 818 818 819 819 819 819 819 818 818 818 817 817 816 815 814 813 812 810
761 783 784 772 768 764 761 761 758 760 761 760 765 775 782 787 786 777 775 772 767 783 795 793 797 799 795 794 792 790 794 799 800 803 807 809 812 813 811 811 810 809 807 807 807 807 808 808 808 809 810 811 813 815 817 818 818 818 818 818 819 819 819 820 820 819 819 819 819 819 819 820 820 820 820 819 819 818 817 817 816 815 814 813 812 811
779 785 773 761 757 756 758 756 756 761 759 761 765 774 784 783 781 780 774 770 772 784 795 796 798 800 796 794 793 792 794 797 796 798 803 808 811 811 809 808 808 809 809 806 806 807 808 809 809 811 811 812 813 815 818 819 819 820 819 820 820 820 821 821 821 820 820 820 820 820 821 821 821 821 821 820 819 818 818 817 816 815 814 813 813 812
792 779 760 753 753 758 762 756 757 763 759 761 765 772 783 779 781 789 781 776 778 782 792 797 799 801 799 798 797 794 791 794 795 796 799 803 806 806 803 803 805 808 808 807 807 808 810 812 813 814 813 812 813 815 817 819 820 820 820 821 821 822 822 822 822 821 821 821 821 821 821 821 822 822 822 821 820 819 818 817 817 815 814 813 813 813
786 767 750 751 755 759 765 760 760 766 766 765 763 766 775 774 773 778 777 779 783 784 787 796 808 808 803 805 805 797 793 797 799 800 804 804 802 801 800 802 804 805 806 809 810 810 811 813 815 816 815 813 813 816 817 819 820 820 821 821 822 823 823 823 823 822 822 822 822 821 821 821 821 822 822 821 821 820 819 818 817 816 815 814 814 813
776 758 749 756 759 758 765 766 762 764 771 770 761 756 760 765 767 770 775 784 798 803 790 793 818 822 806 805 807 801 800 804 804 805 809 808 803 801 803 805 806 805 806 808 809 809 809 811 814 815 815 813 814 816 818 819 819 820 820 821 823 823 824 824 823 823 823 822 823 823 822 822 822 822 822 822 822 821 821 820 818 817 816 815 814 813
765 753 750 758 761 761 767 769 760 757 773 777 759 747 750 756 763 771 777 787 803 806 787 783 810 822 812 806 805 802 804 807 808 809 810 808 805 803 805 807 807 806 806 805 806 807 808 809 811 813 815 814 814 816 818 819 819 819 820 821 823 824 824 825 824 824 823 823 823 824 824 824 823 823 823 823 823 822 822 821 819 818 817 816 815 814
758 756 756 756 760 765 770 770 758 751 770 773 749 742 749 753 760 769 774 781 788 789 786 784 794 812 816 806 800 800 805 810 810 810 809 807 806 806 806 807 806 805 804 804 806 806 806 808 810 811 813 814 814 816 817 818 819 819 820 822 823 824 825 825 825 824 824 824 824 824 824 824 824 824 824 824 823 823 822 821 820 819 818 817 816 815
754 760 761 757 763 769 765 760 749 748 763 758 740 740 746 749 756 759 767 777 776 784 803 798 790 807 816 803 798 802 809 817 814 809 808 807 807 808 808 808 805 803 802 803 807 808 807 809 811 811 813 815 815 815 816 818 819 820 821 822 823 824 825 826 826 825 825 825 825 825 825 825 825 825 825 824 824 823 823 822 821 820 819 818 817 816
752 751 750 753 763 764 755 747 741 747 756 744 734 740 743 748 753 754 764 772 772 788 809 801 789 804 814 806 806 810 813 818 814 807 806 806 807 809 809 807 804 802 803 806 809 809 808 810 812 812 814 815 815 815 817 818 819 821 822 823 824 825 826 826 826 826 827 827 827 826 826 826 826 826 825 825 824 824 823 823 822 821 820 819 818 817
748 739 739 746 752 748 743 742 740 742 744 737 739 748 752 755 755 760 767 770 784 799 795 787 784 795 809 810 807 806 802 803 807 807 807 809 810 810 808 805 802 802 805 807 809 808 809 810 812 813 814 815 816 816 817 818 819 821 822 823 824 825 826 827 827 827 828 828 828 828 828 827 827 827 826 825 825 824 824 823 823 823 822 821 820 818
749 747 746 740 736 736 740 744 740 737 736 739 750 758 767 772 767 774 778 779 802 807 785 778 779 788 806 807 796 791 787 788 794 800 807 811 811 809 806 803 802 804 805 806 807 807 809 810 811 813 814 815 816 817 818 819 821 822 823 823 824 826 828 828 829 829 829 830 830 830 829 829 828 828 827 826 826 825 824 824 824 823 823 822 821 820
757 754 747 737 730 731 744 753 749 743 741 745 755 765 782 794 794 800 799 798 806 798 782 777 777 790 805 798 788 786 783 783 783 788 799 805 806 805 803 802 803 804 804 804 804 806 806 808 810 811 813 815 816 818 820 821 822 823 824 825 825 828 829 830 830 830 830 831 831 831 830 830 830 829 828 827 827 826 825 825 824 824 824 823 822 821
772 759 746 746 740 728 739 758 764 760 752 753 760 770 789 804 815 821 814 811 808 793 783 775 777 800 807 794 793 792 785 781 779 786 794 795 798 800 800 802 803 803 802 801 801 803 804 807 809 811 813 815 817 818 820 821 823 824 825 826 827 829 830 830 831 831 831 832 832 831 831 831 831 830 829 828 827 827 826 826 825 825 824 824 823 822
786 780 757 752 748 733 735 746 752 754 752 752 751 761 780 790 805 817 811 810 806 793 788 783 790 812 811 800 801 796 787 783 784 790 794 795 798 800 801 803 804 803 801 800 801 803 806 809 812 814 815 816 817 818 820 822 823 824 825 827 828 829 831 831 832 832 832 832 832 832 832 832 832 831 830 829 829 828 828 827 826 826 825 824 824 823
784 783 752 739 737 732 737 732 729 745 757 751 743 759 775 770 777 794 794 791 791 794 799 801 809 815 808 806 804 796 794 792 792 796 798 802 804 802 805 805 803 803 802 803 805 808 811 813 814 815 816 818 819 820 821 822 823 825 826 828 829 830 832 833 833 833 833 833 832 832 833 833 833 832 831 830 830 830 829 828 828 827 827 826 825 824
780 776 746 736 736 729 733 729 723 740 756 754 753 762 759 747 758 782 789 781 783 801 811 812 824 825 814 815 810 802 804 801 800 802 802 806 806 806 808 806 804 804 805 808 810 812 814 815 816 817 819 821 822 822 823 823 824 826 827 828 829 831 833 834 834 835 834 834 833 833 834 834 834 833 833 832 831 831 830 830 829 828 828 827 826 825
768 773 749 740 746 732 720 726 726 724 734 753 762 752 742 746 755 770 790 794 795 811 818 815 827 830 823 826 821 812 812 809 806 806 806 809 809 810 810 808 808 808 809 812 812 814 816 816 818 820 821 823 824 824 824 824 826 827 829 830 830 832 833 834 835 836 836 835 835 835 835 835 835 834 834 833 833 832 831 831 830 830 829 828 828 826
755 774 757 737 746 736 718 730 742 729 720 735 742 733 742 767 773 772 787 799 802 815 825 821 821 824 824 826 825 820 815 812 812 810 810 812 812 813 813 812 813 813 813 815 815 816 817 817 819 820 822 824 824 824 824 825 827 828 830 831 831 833 834 834 836 837 837 837 836 836 836 836 836 835 835 834 834 833 832 832 832 831 831 830 828 827
747 772 767 739 734 736 730 739 755 748 731 728 732 733 741 756 766 768 773 782 791 807 827 832 828 826 822 814 814 816 811 809 812 811 810 813 813 814 814 814 815 816 816 816 816 817 817 818 819 820 822 823 822 824 825 827 829 829 831 833 833 835 834 834 836 837 838 838 837 837 837 838 837 837 836 835 834 834 833 833 833 832 831 830 829 827
744 763 769 748 734 741 748 745 747 749 744 742 748 751 750 747 752 759 762 765 772 791 818 836 839 830 812 800 802 806 806 804 803 804 808 812 813 813 813 815 816 815 815 816 816 817 817 818 819 820 821 821 822 824 826 828 830 831 832 834 835 836 835 835 837 837 838 838 838 838 838 839 839 838 837 836 836 835 835 834 833 833 832 830 829 828
746 757 764 759 750 752 750 735 729 734 734 740 748 749 749 749 755 768 774 767 766 784 805 824 838 829 804 795 796 797 799 798 795 800 807 810 811 812 814 814 815 814 815 816 816 816 817 818 819 820 820 822 824 825 827 829 830 832 834 835 836 836 836 836 837 838 838 839 839 839 839 840 839 838 838 838 837 836 836 835 835 834 833 831 830 829
733 746 759 761 754 749 740 725 722 723 720 727 735 736 740 745 752 769 780 774 777 791 795 807 831 826 801 794 795 792 793 793 794 800 805 808 810 812 813 813 814 815 815 816 816 816 818 819 819 820 821 824 826 826 827 829 831 833 834 836 837 837 836 837 837 838 839 839 840 840 840 840 840 839 839 838 838 837 837 836 836 835 833 832 831 830
730 747 758 760 751 740 732 723 719 716 718 730 735 732 737 742 744 754 764 769 785 799 798 810 833 825 803 798 797 794 794 795 799 803 805 809 811 811 812 813 813 816 816 816 817 817 820 820 820 821 823 825 826 827 828 829 832 834 835 836 837 837 837 837 838 839 839 840 841 841 841 841 840 840 840 839 839 838 838 837 836 836 834 833 832 831
738 752 757 766 769 761 752 744 737 729 729 741 745 737 736 740 743 752 759 766 786 801 800 810 829 823 805 802 801 798 799 802 806 807 808 810 811 810 811 812 814 816 817 817 818 819 821 820 820 823 825 826 827 828 829 831 834 835 836 837 836 837 838 838 839 840 840 841 842 842 842 842 841 841 841 840 840 839 839 838 837 837 836 834 833 832
736 749 752 767 782 784 779 771 759 748 743 749 751 746 745 745 747 756 765 774 790 801 799 804 819 821 810 807 807 804 805 808 809 810 811 811 811 810 810 812 815 816 817 818 819 820 820 820 821 823 825 827 828 829 831 832 835 836 836 837 837 838 839 839 840 841 841 842 842 842 843 842 842 842 842 841 840 840 840 839 838 838 837 836 835 833
734 745 745 756 766 768 768 759 745 743 751 758 758 753 752 750 749 755 769 782 790 798 803 802 807 817 818 813 812 808 807 810 810 811 813 812 810 809 810 813 815 816 818 819 819 820 820 820 823 824 826 828 829 831 832 834 835 836 837 837 838 839 839 840 841 842 842 843 842 843 843 843 843 843 843 842 841 841 840 839 839 838 837 837 836 834
735 746 744 748 752 750 751 747 738 742 753 759 758 757 754 750 750 756 769 781 785 793 807 804 800 813 819 811 809 808 806 808 810 811 811 809 808 809 812 814 816 817 819 819 820 821 821 822 824 826 827 829 831 832 833 835 836 837 837 838 839 840 841 841 842 842 843 843 843 844 844 844 844 843 843 843 842 842 841 840 840 839 838 838 837 836
734 747 742 744 749 746 746 745 743 748 754 755 756 759 758 754 754 761 770 777 777 782 795 798 798 808 810 804 803 802 801 804 807 808 807 806 807 809 812 815 817 819 820 820 822 822 822 825 826 827 828 829 831 833 834 836 837 837 838 839 840 841 842 842 843 843 844 844 844 844 844 844 844 843 843 843 842 842 842 841 841 840 839 838 837 836
731 743 738 740 747 748 749 749 749 754 758 760 761 762 761 759 759 764 772 775 773 776 782 787 795 801 799 798 798 797 798 801 803 806 806 806 808 809 811 815 817 819 820 821 822 823 824 826 827 828 830 831 832 834 835 836 837 838 839 840 841 842 842 843 844 844 844 844 844 844 844 844 844 844 844 843 843 843 842 842 841 840 840 839 838 837
729 742 737 735 747 755 755 753 755 759 763 768 771 768 765 767 768 771 776 776 779 785 785 785 795 801 796 793 795 796 799 802 804 807 806 806 807 809 812 815 817 819 820 821 823 824 825 826 828 829 830 832 833 834 835 837 837 838 840 841 842 842 843 843 844 844 844 844 844 844 844 844 844 844 844 843 843 843 842 842 841 841 840 839 839 838
730 741 738 738 755 764 759 758 762 761 763 773 778 775 772 773 774 775 774 774 778 787 793 795 798 801 797 794 797 799 800 803 806 806 806 806 807 808 812 815 816 818 819 821 822 824 825 826 828 830 831 833 834 834 835 837 838 839 840 841 842 843 843 844 843 844 845 845 845 845 844 844 844 844 844 843 843 843 842 842 842 841 840 839 839 839
732 739 740 746 760 764 759 760 762 762 776 788 782 773 772 771 771 772 773 772 773 778 789 795 794 794 795 796 799 803 804 804 805 803 803 805 806 809 812 813 815 817 818 821 822 823 825 827 828 830 832 833 834 835 836 837 838 839 840 841 842 843 843 843 844 845 845 845 846 845 844 844 844 844 844 843 843 843 843 842 842 841 841 840 839 839
734 737 741 746 756 765 764 758 761 778 797 795 774 762 766 768 770 775 778 776 775 776 780 785 787 790 794 795 797 802 803 801 801 799 799 802 805 810 813 813 815 817 818 821 823 823 825 827 829 831 832 834 835 836 837 838 838 839 840 841 842 843 843 844 844 845 845 845 845 845 844 844 844 844 844 843 843 843 842 842 842 841 841 840 840 839
735 738 742 745 753 765 764 761 782 807 802 779 764 760 762 765 767 773 779 777 776 777 780 784 790 791 792 793 794 796 798 798 799 800 800 802 805 808 811 814 815 817 819 821 823 824 826 827 830 832 833 834 835 835 836 838 838 839 841 842 843 843 844 844 845 845 845 845 845 845 844 844 844 844 844 843 843 843 842 842 842 841 841 841 840 840
734 739 743 749 757 764 767 775 797 805 786 770 770 768 764 768 769 773 785 785 778 778 782 787 793 791 790 794 794 795 797 798 800 804 804 804 805 806 810 813 815 817 819 821 823 825 827 828 830 832 833 834 834 835 837 838 839 840 842 842 844 844 845 845 846 845 845 845 845 844 844 844 844 844 843 843 843 842 842 842 842 842 841 841 840 840
729 737 742 754 764 768 777 787 790 791 789 785 780 770 765 769 767 769 786 792 780 777 782 787 792 794 793 796 797 796 797 801 808 811 807 806 807 808 810 813 815 818 820 822 824 826 827 829 830 831 833 833 835 836 837 838 840 841 842 844 845 845 846 846 846 846 845 845 845 845 844 844 844 844 844 843 843 842 842 842 842 842 841 841 840 840
726 731 736 752 767 770 781 793 796 803 806 792 775 762 756 759 758 760 780 792 783 778 781 784 790 794 794 797 799 797 799 807 816 816 811 809 809 809 812 815 816 818 820 822 825 827 829 830 830 831 833 834 835 837 838 839 841 842 843 845 845 846 846 846 846 846 845 845 845 845 844 844 844 844 844 843 843 843 842 842 842 842 841 841 840 840
731 733 732 747 765 769 776 791 800 806 801 781 767 760 755 755 754 757 778 794 785 777 780 783 788 792 793 795 797 796 800 813 821 816 811 810 810 810 813 815 817 820 822 823 825 827 829 830 831 832 834 835 837 838 839 840 841 842 844 845 846 846 846 846 846 845 845 845 845 845 844 844 844 844 843 843 843 843 843 842 842 842 841 841 840 840
743 744 744 754 767 769 775 788 794 792 785 772 763 761 755 750 751 769 795 796 779 775 779 781 786 790 790 792 795 794 799 808 813 811 808 809 810 811 812 815 817 820 823 825 826 827 829 830 831 833 835 836 838 839 840 841 842 843 845 845 846 846 845 846 846 845 846 845 845 845 844 844 844 844 843 844 843 843 843 842 842 842 841 841 840 840
757 757 759 767 774 773 777 789 793 786 775 766 761 758 752 752 765 789 799 783 770 774 777 777 782 787 787 790 793 794 796 796 799 803 806 808 810 812 814 816 818 821 823 825 827 828 830 831 833 834 836 837 839 840 841 842 842 844 845 845 846 846 845 846 846 845 846 846 845 845 845 844 844 844 843 843 843 843 842 842 842 841 841 840 840 839
767 768 768 772 777 777 778 786 796 790 771 758 757 753 750 763 782 787 776 765 767 773 773 775 781 783 785 789 792 794 795 794 796 803 806 808 810 813 815 818 820 822 824 825 827 829 830 832 834 835 837 838 839 841 841 842 843 844 845 845 845 846 846 846 846 846 846 845 845 845 845 844 844 844 844 844 843 843 842 842 841 841 841 840 840 839
769 773 776 776 778 781 783 787 798 796 771 753 757 759 759 770 777 770 764 765 768 769 772 777 780 781 785 790 791 794 796 797 800 804 806 809 811 812 815 818 820 823 824 826 828 830 831 833 835 836 838 839 840 841 842 843 843 844 844 845 845 846 846 845 846 846 845 845 845 845 844 844 844 844 844 843 843 843 842 842 841 841 840 840 839 838
767 771 777 776 773 779 787 785 783 779 763 751 757 764 763 763 761 759 764 769 768 770 774 778 780 781 783 787 791 795 797 800 803 805 807 810 811 812 816 818 820 823 825 827 829 831 832 834 835 837 839 840 841 842 842 842 843 844 844 845 845 846 846 845 845 846 845 845 845 844 844 844 844 844 843 843 843 842 842 841 841 841 840 839 839 838
763 759 762 767 766 768 773 770 763 760 756 752 754 757 758 757 755 757 762 766 769 772 773 776 782 783 782 786 791 795 798 801 803 805 807 809 811 813 816 819 821 824 826 827 830 831 833 835 836 838 839 840 841 842 842 842 843 844 844 844 845 845 845 845 845 845 845 845 844 844 844 843 843 843 843 842 842 842 841 841 840 840 839 839 838 837
754 748 750 759 761 760 761 760 757 758 759 755 753 753 754 755 755 756 760 765 769 770 771 775 780 782 783 786 790 794 799 801 802 805 808 809 811 814 817 820 822 824 826 828 830 832 834 835 837 838 839 840 841 842 842 842 843 843 844 844 844 845 845 845 845 845 844 844 844 843 843 843 843 843 842 842 842 841 840 840 839 839 839 838 837 837
750 746 751 759 763 766 771 768 761 761 762 758 756 756 755 755 756 757 760 764 767 769 771 774 777 781 784 786 789 794 799 799 802 807 809 810 814 816 818 821 823 824 827 828 830 832 834 835 837 838 839 840 841 841 842 843 843 843 843 844 844 844 845 845 845 844 844 843 843 843 843 842 842 842 842 841 841 840 840 839 838 838 838 837 836 836
753 750 757 764 767 770 774 769 762 762 762 758 757 759 758 759 759 758 759 763 765 768 771 773 776 781 784 786 789 793 797 800 804 807 810 813 815 817 819 822 823 824 827 828 830 832 834 835 837 838 839 840 840 841 842 842 842 843 843 843 843 844 844 844 844 844 843 842 842 842 842 842 841 841 841 841 840 840 839 838 838 837 836 836 835 834
751 754 760 768 772 775 774 769 765 767 768 763 761 761 760 759 760 761 762 764 766 769 773 774 776 779 782 787 789 792 798 803 804 806 811 814 816 818 820 821 823 825 827 828 830 832 833 835 836 837 838 839 840 841 841 842 842 843 842 843 843 843 843 844 843 843 842 841 841 841 841 841 841 840 840 840 839 839 838 837 837 836 835 834 834 833
754 761 764 769 778 780 775 767 763 768 774 771 765 763 762 760 760 763 766 767 769 772 774 777 779 781 783 786 788 792 798 803 805 807 811 814 816 818 820 821 823 825 826 828 830 831 833 835 836 837 838 839 839 840 841 841 842 842 842 842 843 842 843 843 842 842 842 841 841 841 841 840 840 839 839 839 838 837 837 836 836 835 834 833 832 831
754 758 760 766 773 772 766 761 759 763 771 771 765 763 763 760 761 766 768 770 772 773 773 777 781 784 786 788 790 793 797 802 805 808 811 814 817 818 819 821 823 825 827 828 830 831 833 835 836 837 838 838 839 840 840 840 841 841 841 842 842 842 842 842 842 842 842 841 841 841 840 839 839 838 838 837 837 836 835 834 834 833 832 832 831 830